Theta_e
332 336 340 345 351 353 353 354 354 354 353 354 353 352 352 351 350 349 349 349 347 347 348 348 348 349 348 348 349 348 348 349 348 348 348 348 349 349 350 351 351 351 351 351 350 350 349 348 348 347 347 346 345 345 346 349 350 351 350 350 350 350 350 350 349 348 347 349 349 350 350 351 352 352 352 353 353 353 351 351 350 348 347 349 353
332 335 340 342 350 352 353 353 353 353 353 353 353 352 352 350 349 349 349 348 347 347 348 349 349 348 348 348 347 347 348 348 348 348 348 349 348 348 349 350 350 351 350 350 350 349 348 348 347 347 347 346 346 346 347 348 348 348 348 349 349 349 349 349 348 347 346 347 347 348 348 349 350 351 352 352 351 352 350 350 350 346 345 351 352
333 336 340 341 348 351 352 353 352 353 352 353 352 352 351 351 350 349 348 347 347 348 348 349 348 348 348 347 347 347 347 348 348 348 348 348 348 348 349 349 350 350 350 349 349 348 347 346 346 346 346 345 345 346 346 346 347 347 347 348 348 348 348 347 346 344 344 345 346 345 344 345 348 349 350 351 352 352 350 350 349 349 347 350 350
333 336 340 342 346 348 352 352 353 353 353 352 352 352 351 350 349 349 347 347 348 349 349 348 347 347 346 346 347 347 347 348 348 348 348 348 348 347 348 349 349 349 349 349 349 348 346 346 345 345 343 343 343 343 343 343 344 345 345 346 346 346 345 345 344 342 342 344 343 342 340 336 341 349 349 350 350 351 349 349 348 349 349 350 350
333 337 341 342 345 346 350 352 353 353 353 352 352 352 351 350 349 348 347 348 349 349 349 348 348 348 347 346 347 348 347 347 348 348 348 348 348 348 348 348 348 349 348 349 348 347 345 345 344 342 341 340 340 340 340 340 341 342 342 343 344 343 343 342 340 340 341 341 340 339 335 335 336 347 348 348 348 348 348 348 349 349 348 349 348
333 337 341 342 343 344 347 351 353 352 352 352 352 352 350 350 349 348 347 348 349 348 349 349 347 347 348 348 348 348 347 347 347 347 348 348 348 348 348 348 348 349 348 347 347 347 345 344 343 342 340 339 339 338 338 337 338 338 339 340 341 341 341 339 338 340 340 338 338 332 334 335 336 341 346 347 347 346 347 347 349 349 348 349 348
334 337 341 342 343 343 344 350 353 353 352 351 352 352 351 350 349 348 347 349 348 349 348 348 348 348 348 348 348 348 347 347 347 347 347 347 348 348 347 348 347 348 348 347 346 345 344 343 342 341 339 338 338 337 337 336 336 336 336 338 339 339 338 338 338 339 338 334 327 331 334 335 337 340 347 347 346 346 347 347 348 349 349 348 348
334 338 341 342 343 343 344 350 352 352 352 351 351 352 351 350 349 348 349 349 348 348 348 348 348 348 348 348 348 348 347 348 347 347 347 347 347 347 347 347 347 347 347 346 345 343 342 341 341 340 338 335 335 335 335 335 334 334 334 335 337 337 336 338 338 337 338 329 331 334 335 334 336 338 347 347 346 348 347 348 347 347 347 347 345
334 337 340 342 342 342 344 348 352 352 351 351 352 351 351 350 349 347 349 348 348 348 349 348 348 348 347 348 348 347 347 348 348 347 347 347 347 347 347 346 345 345 345 345 344 342 341 339 340 339 337 334 333 333 332 333 332 331 331 332 335 336 337 338 337 336 333 332 333 334 333 334 335 336 344 346 346 345 344 343 345 345 345 344 343
334 337 339 341 341 341 343 347 352 352 351 351 352 351 351 349 349 348 349 348 348 348 348 348 348 348 348 348 349 348 348 346 347 346 346 347 346 346 346 346 345 345 345 343 341 339 339 338 338 337 335 333 331 331 330 330 330 329 329 332 333 334 336 336 335 334 329 332 333 331 334 341 335 337 343 346 345 344 343 343 341 340 342 342 343
333 336 339 340 340 341 345 348 350 351 351 351 352 351 351 349 349 349 349 348 348 348 349 348 348 348 349 348 348 348 348 347 347 346 346 346 346 346 346 345 345 344 342 341 340 338 337 337 336 336 334 331 330 329 328 327 327 328 328 331 332 334 335 333 331 326 330 331 331 334 340 342 333 336 345 345 345 343 342 342 342 342 342 342 342
333 335 337 338 338 340 344 347 349 351 350 351 352 351 351 349 349 349 348 348 348 348 348 348 348 348 348 348 349 348 347 347 347 346 345 345 346 345 345 343 342 341 341 340 338 338 337 336 335 335 332 330 328 327 326 325 324 325 327 328 330 332 332 330 324 327 331 332 333 331 331 333 333 340 344 344 343 342 341 341 341 341 341 341 341
332 335 336 337 338 339 342 346 348 350 350 351 352 351 351 350 349 349 348 348 348 348 348 349 348 348 348 348 348 348 347 347 346 346 345 345 345 344 343 342 341 340 339 338 337 336 336 336 334 334 331 328 326 325 323 323 323 324 326 327 329 330 329 328 323 327 327 328 328 327 326 329 331 343 342 342 342 341 340 339 339 339 339 339 339
330 333 335 336 338 336 340 343 346 348 349 351 352 351 350 350 349 349 348 348 348 348 348 349 348 348 349 348 348 348 347 347 346 346 345 345 345 344 343 342 341 340 338 337 337 335 335 336 334 333 330 327 324 323 323 323 323 324 324 326 329 328 325 325 326 324 324 323 323 323 323 327 331 341 341 341 340 339 338 337 337 337 336 336 336
331 331 333 335 336 337 335 340 343 345 347 349 350 349 350 350 349 349 348 348 348 349 348 349 349 349 349 348 348 348 347 346 346 346 345 345 344 344 343 342 341 339 338 338 337 336 334 334 332 331 328 326 324 322 322 322 322 323 323 326 328 326 324 317 319 318 321 322 320 322 325 323 340 340 340 340 338 337 337 335 335 335 335 334 333
327 330 331 333 334 336 337 337 339 341 342 345 347 347 349 349 348 348 348 348 348 348 348 348 349 348 349 348 348 347 347 346 345 345 344 344 344 343 342 341 339 337 336 335 335 333 333 332 332 329 326 324 323 322 319 319 319 321 322 325 325 324 322 318 315 315 318 321 321 321 326 325 340 339 338 337 336 335 334 335 334 334 334 334 333
325 326 330 332 332 335 337 338 338 336 338 339 341 343 345 347 347 347 347 347 347 347 347 347 347 347 348 347 347 346 345 345 344 344 344 344 343 342 341 340 338 336 334 334 333 333 332 332 330 327 325 324 323 321 321 320 320 320 321 323 323 323 321 318 314 312 315 319 319 319 324 326 336 336 335 334 333 332 332 332 332 332 331 332 331
322 327 330 331 332 334 336 338 339 338 340 337 336 338 341 344 345 345 344 344 345 346 346 345 346 345 344 343 342 341 342 343 343 343 343 342 342 341 341 339 337 335 334 334 333 332 331 330 328 326 324 324 322 321 319 319 319 318 320 321 322 321 319 316 312 311 315 318 314 317 321 334 333 333 333 331 331 330 330 329 330 330 328 328 330
320 326 329 330 332 333 336 338 338 340 340 340 341 339 336 339 341 342 342 343 343 342 342 342 341 341 340 339 338 336 336 337 338 338 339 336 335 332 335 339 336 335 334 334 333 331 330 329 327 325 324 323 322 320 318 317 317 317 319 319 318 317 316 313 309 310 311 314 313 315 319 333 332 333 332 331 331 330 329 328 328 328 328 327 327
317 326 328 328 330 332 335 338 339 341 341 342 342 342 335 333 338 340 339 340 340 339 339 339 334 332 333 333 332 333 332 333 329 333 332 334 330 327 331 337 336 334 334 333 332 331 330 328 327 325 324 323 321 317 315 315 315 316 318 316 314 312 307 306 305 307 308 312 313 314 328 331 330 331 331 331 330 330 329 327 326 326 326 326 328
316 321 327 329 328 330 333 336 338 340 341 342 342 342 341 332 333 333 334 335 336 335 336 332 327 326 327 327 326 335 335 332 329 333 325 330 322 323 329 335 336 335 335 333 331 330 329 327 326 325 324 322 317 315 314 314 314 316 315 313 309 304 303 305 306 306 306 307 311 312 331 330 328 330 329 330 330 328 326 326 326 326 326 326 325
316 317 321 327 331 332 332 334 337 338 340 341 342 343 342 335 340 339 336 335 332 330 332 334 327 331 326 330 333 332 333 332 331 327 329 327 323 321 324 330 334 333 332 334 331 330 328 327 326 325 323 319 313 295 295 306 313 313 312 307 299 299 301 303 303 304 305 305 308 320 331 327 328 329 328 328 328 327 326 325 327 325 324 326 326
316 317 320 325 330 333 333 334 335 337 338 340 341 342 342 339 339 340 337 333 332 330 334 331 331 331 329 331 331 333 332 331 329 327 326 322 324 320 323 327 331 330 329 331 332 330 328 327 326 324 321 315 296 291 289 288 292 304 302 295 296 297 298 300 301 300 301 306 304 323 330 326 327 328 328 328 327 325 325 326 326 326 326 325 324
318 319 319 318 326 332 333 334 335 336 337 339 340 341 341 340 340 340 339 338 337 335 335 334 332 330 329 328 328 330 330 330 324 320 321 323 323 319 321 323 324 325 323 325 328 329 328 327 326 323 311 299 291 292 289 287 290 291 291 292 293 294 297 298 300 299 298 304 304 322 327 328 327 327 326 325 326 326 327 327 326 324 324 325 325
315 315 315 320 323 329 332 333 334 336 336 338 338 340 340 339 340 339 338 338 337 336 336 334 333 331 329 328 326 327 328 327 325 323 322 322 321 320 321 318 316 315 319 314 314 316 319 311 309 303 294 294 292 291 289 290 292 293 292 292 292 293 296 297 297 298 299 297 303 320 322 327 329 326 326 326 326 326 327 326 325 324 324 325 324
309 315 318 319 320 325 330 332 333 334 335 337 338 338 338 338 338 338 336 336 336 335 335 334 333 331 330 328 325 324 324 324 323 322 321 320 319 318 318 315 312 312 313 313 310 311 307 306 303 298 295 293 291 291 290 292 291 292 291 292 292 292 293 294 296 298 298 297 299 318 321 322 327 330 326 327 327 325 327 326 325 324 323 324 323
308 311 316 316 317 320 324 328 331 333 334 336 338 337 337 337 337 336 336 334 334 334 333 333 332 331 329 327 325 323 322 322 321 319 319 318 318 317 316 312 311 312 309 312 308 306 306 304 300 297 294 293 293 292 290 291 290 292 292 292 292 291 292 294 296 297 297 297 301 314 318 321 324 328 329 327 327 325 327 326 324 323 323 323 323
306 309 311 314 316 317 319 322 328 331 333 335 336 336 336 336 336 334 334 332 332 332 332 331 330 329 327 326 325 324 322 320 320 319 318 316 317 316 314 310 309 309 307 309 309 304 303 302 300 295 295 293 293 292 291 291 290 291 292 292 292 290 291 292 294 294 294 294 296 304 316 319 321 325 328 329 327 324 326 324 325 324 323 322 323
303 306 308 311 313 316 319 322 324 328 332 333 334 336 335 335 334 333 332 329 332 333 332 330 328 327 325 325 325 323 322 321 320 319 317 317 315 315 313 311 308 308 308 306 307 305 303 302 302 298 294 293 291 291 291 291 290 290 291 291 291 291 290 291 292 294 294 293 293 298 313 317 320 322 325 328 330 325 325 325 324 325 323 323 323
300 302 305 308 310 314 318 321 323 325 328 331 333 333 333 333 333 332 332 330 329 329 329 328 328 326 324 324 324 324 322 321 320 318 317 316 315 314 313 311 311 307 306 309 305 305 304 300 300 298 295 293 292 291 293 291 290 290 290 291 291 291 290 290 291 293 293 293 293 296 308 312 317 321 323 325 327 328 326 325 325 325 323 322 323
300 301 302 306 309 311 315 319 321 320 322 327 330 332 331 332 332 331 331 331 329 327 325 326 324 325 325 323 323 323 323 322 320 318 317 316 315 314 313 312 310 307 307 308 304 306 303 303 302 300 298 294 292 291 292 291 290 290 290 291 291 290 290 290 290 291 293 293 292 293 297 308 314 318 320 322 324 326 328 326 326 324 325 324 323
302 304 304 303 307 311 314 316 320 320 322 324 326 329 329 330 329 329 330 330 328 327 325 325 322 323 322 321 321 320 319 321 321 319 318 317 316 315 313 312 312 309 308 306 304 303 303 300 299 299 298 296 294 291 290 290 291 291 289 290 290 290 290 290 290 291 293 293 292 293 293 297 305 314 317 321 324 325 325 326 327 325 325 325 324
303 305 306 307 308 309 312 314 316 316 318 319 321 324 325 326 326 327 327 326 327 328 327 325 324 323 322 321 320 319 317 318 316 317 316 316 315 314 313 312 313 311 308 305 303 300 300 298 297 295 295 294 293 292 291 289 289 291 289 291 289 290 289 290 289 289 292 293 293 292 292 294 295 304 310 314 319 323 324 325 325 326 325 325 324
301 304 306 307 309 309 313 314 314 315 315 315 315 316 318 321 322 324 323 323 323 324 324 324 323 321 320 318 317 317 316 315 314 312 313 314 313 313 313 312 310 307 305 304 304 302 301 298 297 294 297 294 293 292 291 291 290 289 289 289 288 290 288 289 289 289 290 293 292 291 292 292 293 294 296 306 311 318 322 323 323 323 325 325 325
300 301 303 305 307 309 310 312 311 312 312 312 313 313 311 314 315 318 320 321 321 322 320 320 319 319 318 318 317 316 315 314 313 313 310 311 310 309 309 310 307 305 305 302 304 300 300 300 297 297 292 292 290 291 290 290 289 291 290 290 290 290 288 289 288 288 289 291 291 292 294 293 292 293 295 293 300 307 317 321 321 322 323 324 324
298 299 301 303 304 306 309 310 309 310 310 310 311 312 313 313 313 313 315 315 316 318 317 319 318 316 316 315 315 314 314 314 313 312 312 311 311 310 309 307 305 305 305 301 302 301 299 297 294 296 295 292 290 291 288 289 288 289 289 289 289 289 288 288 289 288 289 289 291 292 294 293 292 292 298 293 294 297 312 317 321 322 322 322 323
298 298 299 301 301 302 304 307 309 309 310 310 311 311 313 313 314 314 314 314 314 313 313 313 314 316 314 315 315 315 314 314 313 313 315 312 310 310 306 306 305 305 304 301 301 301 299 298 292 293 295 296 291 290 288 288 288 287 287 287 288 289 288 288 288 289 289 288 289 291 292 293 293 299 295 292 292 293 302 312 316 318 316 318 320
297 297 298 299 299 300 301 302 305 308 309 310 311 312 312 313 313 313 312 313 312 313 312 312 311 311 311 311 312 313 312 312 311 311 311 311 310 309 307 306 305 305 304 301 301 297 297 298 297 291 292 293 291 290 289 287 287 288 287 287 287 286 287 287 288 291 289 289 288 289 293 293 293 294 294 291 291 293 293 301 310 311 308 311 317
296 296 297 298 298 299 300 299 301 303 306 308 309 310 311 311 311 311 311 311 311 311 311 311 310 311 310 310 310 310 308 309 309 308 309 308 308 307 307 304 305 304 303 301 299 296 295 295 298 294 290 289 290 289 289 288 288 287 287 287 285 285 287 286 289 288 288 288 289 291 288 292 293 293 293 291 291 292 294 293 293 292 292 307 314
295 295 296 296 296 297 298 298 298 301 303 303 305 307 308 307 307 307 307 307 309 309 309 309 309 309 309 310 310 309 309 307 307 307 307 306 306 305 304 301 302 303 302 301 299 298 298 295 294 294 290 289 288 286 286 287 287 286 286 287 285 285 286 286 286 287 288 288 288 288 289 290 291 292 291 292 292 292 293 294 293 293 292 298 308
293 294 294 294 294 295 295 295 297 298 299 300 300 301 303 304 303 302 302 303 304 306 306 307 306 306 307 308 308 308 308 307 306 306 306 305 304 303 303 301 301 301 302 302 301 299 298 297 295 293 292 289 288 286 286 287 287 285 284 285 287 285 287 287 287 287 287 287 286 287 288 289 289 288 291 292 291 291 292 293 294 294 293 291 296
292 292 292 293 293 294 294 294 295 296 296 297 298 298 298 298 299 298 299 299 299 299 299 300 302 303 302 302 304 306 306 306 305 305 304 304 303 302 302 301 300 300 299 298 298 296 295 294 293 292 291 291 289 286 287 288 285 285 285 282 281 284 287 287 287 288 287 287 287 288 288 288 288 288 288 289 290 290 291 292 292 293 293 293 293
291 291 292 292 292 293 293 293 294 294 295 296 296 296 296 297 297 295 296 295 295 296 296 295 297 298 298 298 298 300 301 301 302 303 303 302 301 301 300 300 300 299 299 298 297 296 295 294 293 295 292 289 289 286 287 288 287 282 282 283 281 281 283 283 286 287 287 287 286 287 288 287 289 288 287 287 288 289 289 289 290 291 292 292 292
290 291 291 291 292 292 292 292 293 293 293 294 295 295 295 295 296 296 296 295 294 294 295 295 294 295 294 295 295 295 297 297 297 298 299 298 299 298 297 297 297 298 298 298 297 296 294 293 293 292 293 292 289 289 288 287 285 286 285 284 280 280 282 283 281 283 285 287 287 287 287 288 288 286 285 286 287 287 288 287 287 288 289 290 291
289 289 290 290 291 291 291 292 292 292 292 293 293 294 295 294 295 295 295 294 294 294 293 293 292 292 293 292 292 293 294 294 294 294 294 295 294 295 294 294 294 295 296 296 296 297 296 295 294 293 293 293 293 290 288 289 287 287 286 282 282 283 281 280 281 283 281 284 285 286 286 286 286 285 286 287 286 286 286 286 286 286 286 287 287
287 288 289 290 290 291 291 291 291 292 292 292 293 293 293 292 292 292 291 290 289 290 289 289 290 290 290 291 292 292 291 292 292 292 292 292 293 293 292 293 292 291 293 294 295 295 295 294 294 294 293 292 291 290 289 289 289 288 286 284 286 284 283 281 282 283 280 282 282 282 284 284 283 285 285 286 286 287 287 286 286 286 286 285 286
286 287 288 288 289 289 290 290 290 291 291 291 292 292 291 291 291 290 289 289 288 288 288 289 289 289 290 290 290 290 290 290 290 290 290 291 291 291 291 291 291 290 289 290 291 292 293 293 293 293 293 294 292 290 289 290 289 288 289 288 284 283 283 283 282 282 284 280 281 281 283 283 284 284 285 286 286 286 286 286 286 287 286 286 286
285 286 287 287 287 287 288 288 289 290 290 291 291 291 290 290 289 289 289 288 288 287 288 289 289 289 289 289 289 289 289 289 289 289 289 290 290 290 291 291 291 290 289 289 289 288 289 290 291 292 292 292 292 290 290 290 288 289 288 288 287 285 282 283 283 284 282 282 284 282 281 282 282 284 285 286 286 286 286 286 286 286 286 286 286
285 285 285 286 287 286 287 287 287 287 288 289 289 289 290 289 288 288 287 288 288 287 287 288 287 287 286 287 287 287 288 288 288 288 288 289 289 289 289 290 290 290 290 290 288 287 287 287 288 288 288 290 291 291 290 289 288 288 288 287 287 287 285 283 282 282 283 283 283 284 284 280 281 282 284 285 286 286 286 287 286 286 286 286 286
284 285 284 285 285 285 286 285 285 286 286 287 287 288 288 288 287 286 285 285 285 285 285 285 286 286 285 285 285 285 286 286 286 287 287 287 288 288 288 288 288 289 289 289 289 289 288 287 286 286 286 286 287 288 289 289 289 289 288 288 287 284 284 283 282 281 282 283 282 283 284 283 284 285 284 284 285 286 286 286 285 285 286 286 286
283 283 283 284 284 284 284 284 284 285 285 285 286 286 286 286 286 285 285 284 284 284 284 283 284 284 283 284 284 285 285 285 285 285 286 286 286 287 287 287 287 288 288 288 288 288 288 287 286 285 285 285 286 285 286 286 287 287 286 287 286 287 287 286 285 284 283 282 281 282 283 283 283 285 284 283 285 285 285 285 285 286 286 286 286
Wind_Speed
6 8 8 11 13 14 17 16 16 15 14 14 14 13 13 12 11 10 8 8 8 8 8 9 9 9 10 10 10 10 10 9 9 8 8 8 8 7 7 8 9 9 10 13 12 11 11 11 11 12 12 13 13 12 11 11 11 12 12 12 13 13 13 13 13 12 11 11 11 11 10 10 11 11 11 12 12 12 11 10 8 6 4 6 11
12 9 8 8 13 13 16 16 16 15 14 14 13 12 12 11 11 10 9 9 8 8 8 8 9 9 9 9 9 9 9 9 8 8 7 7 7 6 7 8 8 9 10 11 12 11 11 11 11 11 11 12 12 12 11 11 11 11 11 11 12 12 12 12 12 11 11 10 10 10 9 10 11 12 12 12 12 13 11 10 10 6 3 8 10
9 9 9 9 13 13 14 15 16 16 16 14 13 13 12 10 9 10 10 10 10 9 8 8 8 8 8 8 8 8 8 8 7 6 6 6 6 6 6 7 8 9 9 10 12 11 11 11 10 10 10 10 11 11 11 10 9 10 10 10 10 10 10 9 10 10 10 10 9 9 9 8 9 11 11 12 13 13 12 11 9 7 5 9 9
12 9 8 10 13 13 14 14 15 15 14 14 14 13 11 11 11 10 11 10 11 11 10 9 8 7 7 7 8 7 7 7 7 6 6 5 5 5 6 7 8 10 9 10 13 13 12 11 11 10 10 10 10 10 10 9 9 9 9 10 10 9 9 8 8 9 8 7 7 7 4 4 5 10 11 11 12 13 11 12 11 10 10 11 12
11 9 9 9 9 11 13 14 14 14 14 15 14 13 13 12 11 11 11 11 11 11 11 10 9 8 7 6 6 6 7 7 6 6 6 6 5 5 5 7 8 9 10 10 13 13 12 11 11 11 10 10 10 10 10 9 9 9 9 10 9 9 8 8 8 8 7 5 5 5 3 3 3 8 10 11 11 10 10 11 12 12 13 13 11
9 9 9 9 9 9 13 14 15 15 15 15 15 14 14 13 13 12 11 12 12 12 11 10 9 9 8 7 7 6 6 6 6 7 7 7 6 6 6 7 8 10 10 10 12 12 11 11 11 11 10 10 10 10 10 10 10 9 9 9 9 8 7 7 7 7 5 2 3 2 3 3 3 3 10 10 10 10 10 12 13 13 14 14 13
10 9 9 10 8 9 13 14 16 15 16 16 15 15 15 15 14 13 13 13 12 12 11 10 9 8 7 7 6 6 6 6 6 7 7 7 7 6 6 7 8 9 9 9 10 10 10 10 10 10 10 10 10 10 10 10 9 9 9 9 9 8 7 7 8 7 4 2 3 2 3 3 3 3 9 9 9 10 11 11 13 14 14 14 14
5 7 9 9 9 11 13 14 15 15 16 16 15 16 16 15 14 14 14 14 13 12 11 11 10 9 8 7 6 6 6 6 6 7 7 7 7 6 7 8 7 9 7 7 8 8 7 7 8 9 9 10 10 10 10 9 9 9 9 9 8 8 7 7 7 6 4 3 3 3 3 3 3 2 8 10 11 11 12 13 12 13 13 14 11
7 7 8 9 9 13 14 14 15 17 18 16 14 15 15 15 14 14 14 14 14 13 13 12 10 10 9 8 8 7 7 7 6 7 8 7 7 7 7 8 8 7 7 8 8 7 7 7 7 8 8 9 9 9 9 9 9 9 9 8 8 8 7 6 6 5 3 3 3 3 3 3 2 2 7 11 12 13 13 10 10 12 13 12 10
6 6 7 8 8 14 14 14 16 18 18 16 14 15 16 15 14 14 14 15 14 14 13 13 12 11 10 10 9 8 7 6 7 7 8 8 7 8 8 8 8 7 7 7 6 5 4 6 7 7 8 8 8 8 8 8 8 8 8 8 7 8 7 6 6 4 3 3 3 3 3 4 3 2 7 12 12 13 11 8 7 7 7 10 11
7 7 7 7 9 14 15 15 15 16 17 16 15 15 16 16 14 15 14 15 14 13 13 13 13 12 11 11 10 9 7 7 8 8 9 9 9 8 9 9 8 7 6 6 5 4 4 3 5 7 8 8 7 7 8 7 7 7 7 7 7 7 7 6 5 3 3 3 3 3 3 3 2 2 9 11 11 11 10 8 7 8 9 10 11
7 6 7 7 10 14 15 15 15 16 16 16 16 16 17 16 15 15 15 15 14 14 13 13 12 12 12 12 10 9 9 9 9 9 9 9 9 8 8 7 6 4 5 4 2 3 3 4 3 7 7 6 6 7 7 7 6 6 6 6 7 6 7 6 4 4 4 3 3 2 2 1 1 4 9 9 9 10 9 9 8 9 9 8 9
7 7 6 6 7 12 15 16 15 15 16 16 17 18 18 16 16 15 15 14 15 14 13 12 12 11 12 11 11 10 11 11 11 11 11 11 10 8 7 6 6 6 6 5 3 1 3 2 0 1 6 5 5 6 6 5 5 5 5 5 6 6 6 6 4 5 4 4 3 2 2 0 0 5 7 7 7 8 8 8 9 8 8 8 8
6 6 5 6 7 11 15 15 15 15 16 16 17 17 18 17 17 16 16 15 14 14 13 11 11 11 10 11 10 11 11 12 13 13 13 11 11 10 8 6 6 5 3 2 2 1 2 4 3 9 6 5 4 5 4 4 4 4 4 5 6 6 6 5 4 4 4 3 3 2 2 1 0 5 6 6 7 6 6 6 7 7 7 7 6
7 6 5 4 5 7 14 15 14 15 15 15 16 16 16 17 16 16 15 14 13 13 12 11 11 10 10 10 10 10 12 12 13 13 12 11 11 11 9 7 5 4 2 2 3 4 4 3 1 5 8 4 3 3 3 3 3 4 5 6 6 6 6 4 3 3 4 3 3 2 2 2 1 5 6 6 6 5 6 5 4 5 4 3 2
3 5 5 5 4 5 8 12 14 15 15 15 15 15 15 15 16 16 15 14 14 13 12 11 10 10 10 10 10 12 12 13 12 12 10 10 10 10 9 8 6 4 3 2 3 0 2 4 9 9 6 3 2 1 2 2 2 3 5 6 6 6 5 5 3 3 4 3 3 2 3 2 2 6 6 5 4 4 3 4 3 3 3 3 3
3 3 5 5 5 5 7 8 10 14 14 14 15 15 15 15 15 16 16 15 14 14 12 11 11 10 10 9 9 9 10 12 12 11 9 9 10 9 8 7 5 5 3 2 3 3 4 8 8 7 4 3 1 0 1 2 2 3 5 6 6 6 5 5 4 3 4 3 3 3 4 3 2 5 4 5 3 1 2 1 2 2 2 2 3
3 5 6 6 6 6 7 7 9 9 9 11 13 15 15 15 15 15 15 15 14 14 13 12 11 10 9 8 9 9 9 11 11 9 8 8 8 7 6 6 6 5 5 5 5 5 5 8 7 5 4 2 2 1 1 1 2 3 5 6 6 6 6 6 4 3 4 3 3 3 3 4 4 4 1 2 2 3 1 1 1 1 0 1 1
4 5 6 6 7 7 8 8 8 8 9 8 7 11 15 14 15 14 14 14 14 13 13 12 11 10 10 10 11 10 10 10 11 10 8 7 6 7 6 6 7 7 6 6 6 6 7 7 7 5 4 3 2 2 1 2 3 4 6 6 6 6 6 5 3 4 3 3 3 3 2 2 3 4 4 4 4 4 3 2 1 1 2 1 2
3 5 6 6 6 7 7 8 8 9 8 8 8 8 11 13 13 14 14 13 13 12 12 11 10 10 10 11 11 10 10 8 11 9 9 8 8 6 6 6 6 6 6 7 6 7 7 7 6 5 4 4 3 2 2 2 3 4 6 6 6 6 4 3 3 3 3 3 2 3 4 3 3 3 3 4 4 4 4 3 2 3 3 2 3
2 4 5 6 6 7 8 7 8 9 8 8 7 8 8 11 10 13 13 12 11 11 10 10 10 9 10 10 11 9 6 5 7 6 9 6 8 8 6 6 6 6 6 6 7 7 7 7 6 6 5 5 4 3 3 3 3 5 6 6 5 5 3 3 4 2 3 2 2 3 5 2 1 3 4 4 4 3 3 3 3 2 2 2 3
4 4 5 5 6 7 8 8 7 9 8 7 6 6 6 8 8 7 8 9 9 9 8 6 6 4 8 8 6 6 6 5 6 6 6 7 7 8 7 6 7 7 6 6 7 7 8 7 7 6 6 6 5 2 2 4 4 5 5 6 4 3 2 3 3 2 2 2 2 4 6 1 3 3 3 4 4 4 4 4 5 4 3 4 4
6 6 6 7 6 6 7 9 9 8 9 8 6 5 6 5 6 7 6 8 7 7 5 6 4 5 4 5 5 5 5 5 5 6 6 8 8 9 8 8 8 8 7 6 7 8 8 8 7 7 7 6 3 2 1 1 2 4 4 3 3 3 3 3 3 2 2 1 2 5 6 1 3 3 4 3 4 4 4 4 4 5 4 2 3
9 6 4 3 6 8 8 8 9 8 8 7 6 5 5 5 6 5 5 6 6 6 6 5 5 4 5 4 4 5 5 4 5 8 7 6 6 9 10 9 8 8 8 5 7 7 9 8 8 7 5 3 2 1 1 1 1 1 3 3 3 2 3 2 2 2 1 1 2 5 6 3 2 3 4 4 4 4 5 5 4 4 4 5 5
5 4 4 7 7 8 7 8 7 7 8 7 7 6 5 5 5 4 5 5 5 5 5 5 6 6 5 5 4 4 4 4 4 4 3 4 3 3 3 3 3 3 5 3 3 3 5 3 4 5 3 2 2 1 1 1 0 1 2 2 3 2 2 1 2 1 1 1 1 4 5 5 3 4 4 4 5 5 5 4 4 3 1 4 4
4 5 7 5 5 7 7 6 6 7 8 7 7 6 5 5 5 4 3 4 6 5 5 5 5 6 5 5 5 5 4 4 4 4 4 3 4 3 4 3 3 3 2 4 3 4 3 4 4 4 2 1 1 1 0 0 1 1 1 1 2 2 2 1 1 1 0 0 1 5 5 5 5 4 4 5 5 6 6 6 5 4 2 3 3
6 10 6 4 3 4 5 5 8 7 9 8 6 5 5 4 4 5 4 3 3 5 5 5 5 5 6 6 6 5 4 4 4 4 4 3 4 4 4 3 4 4 2 5 4 3 5 5 4 3 2 1 0 0 0 1 1 1 1 1 1 2 1 1 1 1 0 0 2 4 4 4 5 5 4 6 6 7 7 7 5 4 5 4 5
7 10 5 5 5 4 3 4 6 7 7 7 7 6 5 5 5 5 5 5 4 4 5 4 5 5 6 6 6 6 6 5 4 4 4 3 4 4 3 3 3 3 2 3 5 3 3 3 4 3 3 1 1 1 1 1 1 0 1 0 0 1 1 1 1 1 0 1 1 3 4 4 5 6 6 7 9 7 9 7 7 8 6 5 6
7 9 7 5 5 4 5 7 6 7 6 6 7 6 5 5 5 5 5 5 5 4 4 4 4 5 5 5 7 6 4 5 5 5 4 5 3 3 4 4 3 3 3 3 4 5 4 3 4 4 3 2 1 3 2 2 2 1 1 1 1 1 1 1 1 1 1 1 1 2 4 5 5 6 7 8 9 9 8 10 8 9 6 7 8
9 10 7 5 4 5 6 8 7 6 4 5 6 5 5 5 5 5 5 5 3 3 5 6 5 4 5 4 5 6 6 6 5 4 4 4 4 3 3 3 5 3 3 5 4 5 5 3 2 2 3 2 2 3 1 3 3 2 1 3 2 3 2 2 2 3 2 2 2 2 4 5 5 6 7 9 9 9 10 9 9 10 9 7 9
9 9 7 6 4 4 5 6 6 5 5 6 6 6 4 5 4 3 4 5 4 4 3 4 5 5 6 4 4 7 8 6 6 6 5 4 3 3 4 4 4 5 5 5 3 5 4 5 5 5 4 3 4 2 1 3 4 3 2 2 4 2 3 2 2 2 2 3 3 2 3 5 5 5 6 8 8 8 9 10 12 10 10 9 10
9 11 8 6 4 3 4 4 6 7 7 6 5 6 5 5 4 4 4 4 4 3 3 4 5 3 3 4 4 3 3 6 7 6 7 7 7 7 6 5 5 4 5 5 5 4 4 3 2 1 1 2 2 2 2 2 4 4 3 4 2 3 3 2 2 2 3 3 3 3 3 3 4 5 5 6 6 6 7 9 9 10 11 10 10
7 7 8 9 8 4 2 0 2 3 3 3 3 3 4 4 5 5 4 4 5 6 5 5 6 5 5 7 6 5 3 4 5 6 5 5 5 5 5 6 5 5 4 3 4 3 3 3 2 1 1 0 1 3 2 3 4 5 3 4 2 4 3 2 3 2 3 3 3 3 3 2 2 4 5 5 6 6 6 7 8 7 11 10 9
8 8 11 13 8 7 4 4 3 3 3 3 3 3 2 3 4 4 4 4 4 5 5 5 5 4 5 4 3 4 5 4 5 4 5 5 5 5 6 6 5 3 3 4 4 4 4 3 3 2 2 1 3 3 3 5 5 4 5 4 3 4 3 3 3 3 2 3 3 3 3 3 3 2 3 5 5 5 6 6 7 6 9 10 11
9 12 13 10 12 10 8 7 6 5 5 4 4 4 3 3 3 4 4 4 4 4 3 2 4 4 4 5 5 5 5 4 5 6 5 5 5 5 5 6 4 3 4 3 4 3 3 4 4 4 1 1 2 3 3 4 4 6 5 4 5 5 4 4 3 4 3 3 3 3 4 4 4 3 3 3 4 5 5 6 5 5 6 10 13
12 10 10 11 13 12 11 10 10 9 7 6 5 5 4 3 3 3 3 2 2 2 1 1 2 2 2 2 3 3 3 4 5 5 5 5 6 6 6 4 4 5 4 4 4 5 4 3 2 3 4 4 3 5 2 4 3 4 4 5 5 4 5 4 5 4 4 3 4 4 4 4 4 4 4 3 2 3 5 4 4 4 4 6 5
10 12 11 11 13 13 13 13 12 10 8 8 8 7 7 7 7 6 6 5 5 4 4 4 4 3 2 2 1 1 3 4 5 5 5 5 5 5 3 4 4 5 5 4 5 3 4 4 3 3 4 5 4 5 3 2 3 3 3 4 4 4 4 4 4 5 3 4 4 4 4 4 4 5 4 3 3 2 3 4 4 4 4 5 5
10 11 10 11 10 10 11 11 10 10 9 8 8 8 8 8 8 8 8 8 7 6 5 6 5 3 3 3 2 3 4 3 1 0 2 2 2 3 3 4 4 4 4 4 3 3 3 4 5 4 4 4 4 4 5 4 3 4 4 4 4 3 4 5 5 4 4 4 4 4 6 4 4 5 5 4 3 3 3 3 4 3 4 5 5
10 11 12 11 11 11 11 12 12 10 9 8 8 8 8 8 8 9 10 9 8 8 7 7 5 6 5 5 5 4 3 3 3 2 1 2 1 1 2 2 3 3 4 3 3 3 3 4 5 4 2 2 3 3 4 3 4 4 4 5 3 4 5 5 5 5 5 4 5 5 3 5 5 5 5 4 4 4 4 3 3 3 3 4 5
11 11 13 13 13 12 10 12 11 9 8 9 8 8 9 9 9 9 11 9 8 8 9 7 7 7 7 6 6 5 5 5 5 5 4 4 4 3 3 2 2 3 4 4 4 5 5 4 4 3 3 1 0 1 2 2 1 2 4 4 4 4 6 5 5 5 4 5 6 4 5 5 6 6 4 5 5 4 4 4 4 4 3 4 6
13 13 13 13 13 11 12 13 9 10 9 9 8 7 7 7 8 9 8 7 7 8 9 8 8 8 9 8 8 7 7 7 6 5 5 5 4 4 4 4 2 1 0 1 0 1 0 2 2 2 4 3 3 0 1 2 1 4 3 5 6 5 5 4 5 6 6 6 4 5 6 6 6 5 6 5 5 5 5 5 5 5 5 4 5
13 13 13 11 11 13 13 10 10 10 10 8 6 8 5 5 7 6 7 7 9 10 9 9 8 9 11 10 9 8 8 7 6 5 6 5 5 5 5 3 3 2 2 2 1 0 1 1 2 1 0 4 3 2 3 3 1 3 5 6 5 6 6 6 6 8 7 5 5 6 7 6 7 6 5 4 6 5 6 6 5 5 5 5 5
10 11 10 12 13 12 11 10 10 10 9 9 8 7 6 5 6 5 6 6 5 5 7 6 8 9 10 10 10 10 9 9 8 7 6 6 5 5 5 4 3 2 2 2 2 1 0 1 2 3 2 0 0 1 4 5 4 1 1 2 6 6 5 3 5 6 6 6 6 7 8 6 9 6 5 5 6 6 6 5 5 5 6 6 6
10 11 12 11 10 11 10 11 11 10 10 10 8 6 5 5 6 8 8 9 5 4 7 10 11 13 12 10 11 9 9 9 10 9 8 8 7 6 5 5 4 3 2 2 2 3 2 2 2 3 2 3 2 3 3 3 4 2 5 3 3 1 8 4 3 6 6 8 7 9 6 8 7 4 3 6 7 6 6 5 6 6 6 6 6
11 11 11 10 8 11 10 10 10 10 10 10 9 6 6 7 5 7 7 8 10 11 12 12 10 9 10 12 10 10 9 10 9 9 8 8 7 6 6 5 5 4 3 3 3 1 1 0 0 1 1 3 5 2 1 2 4 3 3 1 4 1 5 5 5 6 2 1 5 7 5 5 5 4 4 7 5 6 6 6 7 5 6 6 6
11 9 8 9 10 11 11 11 11 11 11 11 10 10 10 10 11 11 10 9 11 11 11 9 9 10 8 5 11 11 10 10 10 9 9 7 8 7 6 6 6 6 5 4 2 3 3 3 1 1 2 1 2 4 3 1 5 4 2 2 2 5 4 4 5 9 3 3 3 2 4 5 4 4 5 7 7 7 6 7 5 7 7 6 6
9 7 8 10 11 11 11 12 11 10 10 11 11 9 11 11 11 10 9 9 8 6 4 5 6 6 7 11 9 10 11 11 10 10 9 9 8 8 7 6 6 5 4 5 5 3 3 2 2 0 2 1 0 3 5 4 0 3 5 6 3 1 1 2 7 4 12 4 0 2 5 4 5 5 7 9 8 7 7 7 8 8 7 6 6
6 7 9 10 12 12 12 12 11 12 11 10 13 11 11 10 11 11 10 10 9 7 8 7 7 8 11 11 10 10 10 10 11 10 10 10 10 9 8 7 7 6 5 6 5 4 4 3 2 1 1 1 1 3 5 3 4 3 2 5 5 4 4 3 3 6 7 12 13 3 3 5 4 6 8 9 9 9 9 8 8 7 7 7 7
7 8 8 8 9 10 11 12 13 12 11 13 12 12 11 11 10 9 11 8 8 7 6 8 9 9 13 11 11 10 10 11 11 11 11 10 9 9 9 9 9 8 6 6 5 4 4 5 6 5 4 2 1 2 2 4 3 4 5 3 2 4 4 4 3 3 6 8 15 11 11 3 2 5 7 8 8 8 9 9 7 7 7 8 8
6 6 7 7 8 9 12 14 13 10 9 11 11 12 11 10 12 12 12 9 8 7 8 10 9 9 11 10 8 9 8 10 10 12 12 11 10 10 9 9 8 7 7 6 6 7 5 5 4 4 3 3 3 1 2 4 4 4 3 3 3 3 3 2 3 4 5 7 13 12 9 9 13 6 5 6 9 10 9 8 7 7 8 9 8
6 6 8 8 7 10 11 15 10 9 10 11 11 12 10 11 11 11 11 10 9 9 11 11 10 11 10 9 8 6 6 7 7 8 10 10 10 10 9 8 7 7 8 8 7 6 6 5 4 4 3 3 4 3 2 3 3 4 4 3 5 5 6 6 6 4 5 6 6 10 8 7 8 13 5 6 7 8 7 6 8 9 10 9 8
Wind_Direction
228 189 184 197 187 183 176 174 172 169 168 167 166 166 163 160 159 161 155 151 150 152 150 146 140 135 133 133 131 131 128 125 124 119 116 116 112 111 110 115 119 118 116 110 108 104 99 96 94 90 87 85 85 86 89 85 81 76 68 64 61 66 68 68 67 60 52 50 56 55 56 64 68 75 77 77 74 68 64 59 52 46 41 56 67
178 191 180 193 191 187 179 175 173 169 174 168 169 167 168 165 164 159 157 158 153 161 156 151 143 137 133 133 133 131 131 129 124 120 114 109 108 109 115 116 120 114 112 110 105 102 100 93 90 88 86 84 80 79 80 77 76 72 66 63 64 67 66 65 61 53 49 46 40 40 32 56 65 74 74 72 69 67 61 60 60 51 29 62 65
141 171 177 187 191 189 181 180 179 175 176 174 171 169 169 169 160 157 163 161 162 164 160 153 148 144 141 142 139 137 136 132 127 123 117 108 107 113 113 114 119 117 116 110 99 98 93 89 84 81 81 80 80 79 77 75 70 69 69 64 64 62 60 61 54 44 40 38 35 32 29 25 58 67 71 74 72 67 61 57 54 51 58 63 66
148 169 172 184 191 190 183 181 180 178 177 175 174 169 169 168 163 167 168 166 169 163 162 159 156 153 151 150 146 143 139 138 134 132 125 117 109 111 116 120 123 119 116 100 95 88 84 82 76 72 68 67 68 67 65 66 63 58 59 59 56 53 51 47 41 32 31 24 31 37 23 21 28 74 76 75 72 71 68 63 59 64 65 57 57
153 159 171 178 187 194 185 182 178 178 179 179 173 172 171 166 161 171 170 174 170 166 163 162 162 165 161 161 157 152 149 143 140 137 134 131 123 121 129 132 131 125 113 103 95 88 81 76 73 67 60 58 56 55 52 49 47 44 44 47 49 47 39 31 29 22 15 19 27 38 26 19 18 79 84 83 80 75 70 65 66 63 60 61 60
158 160 168 176 181 192 189 183 178 181 180 181 175 174 175 168 168 173 176 178 172 168 168 167 171 175 170 170 166 163 157 150 150 145 143 140 138 140 141 143 138 123 120 111 95 89 84 77 70 65 58 54 52 49 47 43 37 32 34 40 42 40 33 22 15 9 2 1 39 34 29 19 31 57 95 89 84 80 75 68 64 64 60 56 55
158 162 166 175 180 187 190 184 180 180 182 182 178 178 176 173 170 174 180 178 174 171 172 172 177 178 177 177 170 174 168 164 158 153 148 145 144 147 144 138 141 127 119 114 103 95 85 77 67 59 53 49 49 46 41 38 35 32 24 28 36 37 26 13 10 0 15 91 89 56 46 34 43 42 84 86 85 82 79 74 67 63 60 54 51
156 162 170 172 179 186 186 185 182 181 184 183 182 181 179 174 172 177 181 178 175 174 177 179 181 181 181 184 184 180 176 175 172 162 151 150 148 144 143 141 146 131 122 104 95 84 78 75 64 55 49 44 41 42 40 35 28 25 24 21 28 35 20 10 17 15 60 96 100 81 66 48 41 45 91 88 81 75 70 67 65 63 62 57 50
167 171 168 173 179 183 185 185 182 183 187 186 184 183 181 175 175 179 183 179 177 176 182 184 185 183 188 190 188 191 191 186 187 168 155 154 147 147 141 134 132 132 122 100 86 82 70 56 60 59 52 45 40 37 35 32 27 21 19 20 24 32 23 18 30 42 68 90 92 96 84 66 47 49 94 87 80 72 68 62 57 59 60 57 54
167 170 173 173 179 184 184 185 184 186 187 186 184 186 184 179 177 180 185 182 182 180 184 187 186 189 193 194 196 192 197 180 189 171 160 147 145 146 136 132 130 141 128 104 92 88 74 78 72 65 55 46 38 35 31 27 24 19 18 20 26 30 30 26 43 58 78 85 89 91 96 100 99 94 97 85 83 79 72 72 75 71 62 58 54
167 174 174 176 180 183 186 187 185 187 188 186 185 185 189 181 179 184 187 187 186 187 188 189 191 193 198 195 197 196 188 176 180 173 157 150 147 143 142 140 147 151 117 114 103 105 98 103 82 75 57 41 32 30 29 24 19 17 16 22 28 35 36 35 48 58 71 82 89 89 101 101 102 99 99 92 85 83 79 77 73 69 65 59 54
173 173 177 180 181 184 187 188 188 188 189 185 185 185 190 184 181 186 191 191 189 192 192 194 196 199 198 199 194 194 177 177 181 168 166 153 142 138 138 125 96 104 150 157 115 18 97 94 67 68 61 44 29 24 20 16 14 16 18 25 29 40 43 50 63 64 67 69 69 56 57 73 72 119 107 97 88 80 74 67 61 59 58 55 54
178 176 178 178 183 188 187 189 189 189 190 187 186 190 189 183 184 188 192 193 194 195 195 198 199 206 204 203 196 189 177 177 177 171 169 154 138 140 155 132 114 95 88 95 97 54 23 24 47 133 82 47 20 19 15 12 11 20 25 29 34 47 54 62 72 74 67 58 58 39 33 359 318 122 108 98 92 82 72 63 55 43 48 43 39
173 183 181 181 187 191 189 190 191 191 191 190 187 191 191 184 186 188 192 193 196 196 198 197 204 206 207 209 203 192 179 179 176 174 171 158 148 158 156 145 129 119 117 126 132 126 198 245 277 100 85 57 18 13 14 19 19 28 31 30 38 55 56 58 66 78 73 60 48 33 31 353 232 123 112 101 88 81 75 64 61 49 41 40 39
171 183 185 186 189 193 194 192 192 193 194 191 190 192 189 187 186 188 192 192 193 196 199 196 203 207 207 207 207 193 185 181 180 175 171 161 159 162 162 158 148 149 159 185 215 248 276 282 111 80 91 68 32 13 3 15 32 37 37 37 47 57 67 71 61 68 72 63 38 23 30 6 220 132 118 107 96 84 79 72 65 56 50 47 34
193 182 178 188 191 195 198 200 196 196 196 194 192 194 193 187 186 188 191 193 192 194 199 198 204 209 207 204 202 199 188 186 184 178 177 165 167 165 162 159 158 145 155 215 271 277 143 77 94 96 91 84 40 18 357 7 34 48 39 48 61 70 69 79 70 57 61 63 43 12 40 5 268 151 141 123 108 107 83 78 72 58 60 35 34
179 191 183 190 191 196 201 203 203 200 198 196 195 195 195 190 188 189 190 192 193 192 195 199 201 204 210 207 202 195 187 184 188 188 179 171 169 166 163 161 163 156 164 160 155 156 146 113 106 103 102 93 138 263 51 43 55 56 48 57 69 77 66 80 74 54 55 48 44 9 32 25 351 198 170 142 135 107 130 133 104 119 81 56 25
193 182 196 192 190 196 200 205 205 205 203 201 199 197 197 193 191 191 191 192 193 194 193 196 199 198 201 192 182 179 178 185 189 186 171 173 170 161 160 166 173 170 180 177 167 159 145 122 116 112 116 132 168 181 110 89 84 66 54 60 72 79 74 82 81 61 57 51 29 5 22 46 75 58 10 180 154 146 151 173 170 99 275 332 52
194 194 200 192 196 194 198 202 205 205 205 202 202 202 199 198 192 193 194 193 194 196 193 194 197 197 188 176 175 175 180 184 183 173 169 169 161 150 155 157 169 171 177 174 170 161 140 129 124 130 133 162 169 152 147 112 93 66 64 61 63 60 69 73 76 64 52 43 18 15 347 72 101 104 104 106 118 136 140 149 152 92 92 87 179
213 199 203 206 198 193 197 202 205 206 204 203 205 203 205 201 195 194 196 197 196 197 196 195 196 193 186 176 174 173 178 180 167 164 163 162 155 154 155 154 168 176 183 181 174 165 149 140 140 145 155 166 162 140 133 135 107 80 74 75 66 73 66 65 69 59 42 29 12 359 346 346 152 167 142 138 149 147 141 143 175 187 189 170 117
216 220 208 207 203 199 199 200 204 205 204 203 206 206 205 203 201 196 196 198 196 196 198 197 194 194 183 179 172 170 173 171 168 161 158 158 159 160 158 164 169 175 177 181 183 170 162 151 152 158 170 151 102 78 17 107 86 84 83 77 79 73 76 78 72 65 49 18 7 346 349 334 184 187 202 160 152 156 163 157 158 141 125 102 87
234 228 225 210 203 206 202 201 201 205 204 203 203 203 202 201 203 200 196 195 196 194 195 193 192 191 186 177 171 171 166 167 172 162 159 159 162 164 167 176 177 173 172 177 179 176 166 162 165 170 162 125 108 73 15 22 46 72 79 86 79 86 76 89 83 72 51 11 1 344 358 200 186 182 183 184 154 158 159 167 150 146 174 181 152
253 233 226 202 203 207 205 203 202 199 202 204 203 199 197 190 208 201 196 192 191 192 190 187 183 184 184 176 168 166 166 167 170 169 164 167 168 174 174 186 178 172 172 171 170 173 167 172 170 173 138 116 95 91 61 24 30 51 75 78 93 94 92 87 89 76 57 341 344 349 357 214 181 180 179 163 164 170 172 168 167 157 156 146 155
229 226 233 193 202 206 205 205 201 195 197 201 202 200 194 179 198 200 190 187 189 190 186 181 179 177 173 165 164 163 165 167 173 170 163 161 178 179 182 183 173 169 170 160 168 161 170 169 177 134 92 88 111 97 95 36 44 46 78 90 98 103 103 105 108 97 52 352 334 349 351 357 192 197 195 190 182 186 188 185 147 134 168 182 189
318 303 243 217 205 203 197 206 197 195 196 198 198 200 190 183 189 191 188 182 186 184 183 177 177 173 165 155 154 156 156 157 153 151 157 145 145 161 173 167 155 160 156 146 146 157 140 124 84 88 105 125 139 168 120 121 24 61 83 98 110 109 111 118 123 106 47 345 327 353 348 347 331 225 207 198 189 193 202 177 171 184 175 248 197
300 285 254 264 226 205 204 196 189 194 195 197 198 192 179 190 192 190 182 185 178 181 175 175 175 172 161 158 145 142 138 140 146 157 143 147 152 167 176 156 149 168 138 142 132 123 108 114 128 118 129 102 160 148 335 157 195 110 102 83 112 110 125 132 133 123 5 344 317 345 351 338 327 326 244 204 196 205 206 191 192 176 213 263 232
258 253 234 233 279 255 219 187 196 193 197 193 190 184 187 179 174 171 185 208 188 171 177 174 177 169 166 158 152 148 143 144 150 151 158 157 175 175 176 170 171 167 163 147 148 131 135 138 140 149 136 135 186 345 343 331 295 175 127 106 72 125 135 163 173 181 282 328 321 337 341 331 318 310 279 226 207 214 229 215 211 203 207 216 246
268 263 255 234 207 207 233 223 209 195 196 190 189 190 182 171 168 161 178 176 185 190 172 175 163 171 169 166 163 157 158 155 161 164 163 159 189 181 164 164 167 180 157 152 150 134 134 138 146 140 145 160 235 300 318 310 308 253 154 193 19 140 167 208 234 259 300 314 324 330 332 325 310 305 301 279 226 215 235 233 228 230 185 220 233
295 284 268 244 232 200 185 207 211 205 194 184 197 195 185 176 163 160 174 165 183 190 173 150 169 162 165 177 159 151 154 161 169 175 150 185 172 170 173 189 170 176 157 162 154 158 155 161 168 171 169 191 235 285 295 288 295 306 190 206 230 220 254 251 242 258 281 290 311 315 324 326 313 305 297 292 286 229 227 237 223 241 227 206 221
320 302 286 258 233 194 193 202 200 198 187 184 198 191 190 189 182 170 165 148 181 177 160 165 167 158 165 181 178 150 163 165 165 149 166 182 178 170 178 186 191 176 171 180 181 163 167 160 166 171 178 207 250 264 284 278 282 275 241 212 225 220 210 214 226 237 262 288 291 299 314 322 318 309 303 307 298 305 225 244 233 236 237 225 232
327 331 317 290 242 198 210 193 186 177 175 189 188 194 173 195 189 165 155 169 160 133 143 146 146 171 169 183 194 172 165 170 168 168 178 174 182 186 201 185 198 195 190 193 167 173 164 179 181 185 193 206 236 281 303 285 282 283 254 223 234 231 236 240 242 253 259 262 278 287 306 319 329 316 317 297 300 300 305 242 236 237 237 230 240
354 344 332 314 313 268 235 200 180 170 174 188 176 180 176 173 162 163 179 175 156 150 146 154 160 179 174 170 190 200 174 178 176 177 182 181 184 191 192 188 210 200 195 181 168 162 168 167 153 167 181 184 262 315 335 310 288 271 279 254 259 236 248 240 238 245 252 269 277 289 302 314 320 327 323 323 306 315 306 325 310 238 234 236 233
353 351 352 14 3 337 346 348 151 140 160 168 162 147 140 141 153 167 162 163 182 185 187 189 193 187 187 190 190 181 168 163 170 171 178 185 184 183 185 203 208 197 186 166 152 135 125 129 143 103 99 44 334 304 329 308 291 284 288 270 280 264 262 266 260 267 263 268 279 289 296 303 312 322 333 334 333 319 319 311 314 320 247 236 232
354 1 17 22 8 3 18 56 70 77 82 85 97 109 119 122 134 145 146 155 175 179 190 193 196 203 195 185 190 181 172 167 163 168 168 174 179 189 196 206 205 178 153 149 163 159 156 157 179 142 173 193 248 271 288 279 275 295 295 293 301 274 286 277 268 257 279 276 278 291 286 292 301 310 318 327 331 330 317 312 319 312 296 235 233
11 18 23 16 28 25 24 36 31 68 77 75 86 89 94 104 117 133 149 159 159 179 183 177 193 193 174 192 186 180 179 173 172 169 176 173 179 192 199 208 168 153 162 173 160 160 158 185 156 179 177 224 244 262 245 264 279 280 285 310 292 298 304 278 296 290 278 270 292 276 279 282 288 297 297 305 319 330 325 328 314 314 299 250 233
21 16 21 25 34 30 32 44 37 40 42 51 62 68 67 71 71 67 75 74 99 118 137 190 184 124 174 177 197 173 177 177 178 171 172 183 187 197 207 163 162 156 161 156 148 173 177 166 183 167 187 244 238 262 227 251 283 291 311 310 298 302 293 295 289 286 270 290 273 270 270 273 280 272 264 275 300 311 327 332 331 332 348 353 313
21 24 25 28 34 28 32 38 37 36 39 45 55 58 58 57 53 52 50 47 42 40 36 38 40 21 1 353 342 263 198 186 186 184 180 184 190 204 178 160 157 167 165 162 179 167 166 172 188 204 196 213 214 248 269 254 274 277 290 295 292 305 293 286 278 266 290 268 267 266 275 268 263 263 262 261 275 290 307 315 325 345 352 338 330
25 29 30 37 38 32 35 36 33 36 42 46 51 61 64 64 61 60 58 55 46 41 40 39 34 37 51 51 53 26 11 7 7 342 201 173 175 174 152 162 157 155 157 161 164 133 160 171 204 214 204 197 211 222 242 243 244 268 281 274 281 301 288 289 272 273 267 270 262 255 246 258 264 260 257 255 255 259 272 297 310 332 325 314 302
24 25 32 34 38 34 37 35 32 29 36 41 44 53 55 62 63 56 52 46 43 43 41 48 35 41 38 32 34 38 41 56 55 38 22 28 48 63 89 99 123 135 142 142 146 159 172 191 204 210 201 215 207 214 229 219 250 272 278 280 299 277 271 263 268 272 271 249 248 248 262 261 257 258 260 255 256 251 251 262 272 284 284 296 302
26 24 30 32 31 31 34 37 29 24 39 44 41 46 53 49 48 43 46 35 39 42 39 39 29 37 26 36 41 43 46 46 38 34 44 40 44 42 56 58 88 123 141 163 186 187 199 193 225 191 197 238 13 165 158 147 331 315 296 302 271 254 259 255 272 269 266 255 251 269 257 256 246 254 256 253 251 247 243 245 245 248 258 272 278
29 25 32 30 31 28 34 32 15 23 36 40 42 45 47 48 51 52 62 38 39 43 44 29 35 30 25 28 33 38 41 46 41 45 43 40 37 37 51 51 52 62 34 316 337 216 177 190 158 159 185 211 257 97 90 112 18 313 307 277 285 254 252 254 262 262 250 250 260 259 251 251 250 247 244 248 250 250 246 241 238 240 244 247 264
21 25 31 31 32 32 37 29 21 26 27 24 45 58 45 73 94 77 79 51 41 40 36 27 23 31 31 26 23 23 36 41 36 46 48 47 42 42 47 53 54 44 39 35 64 106 127 125 117 175 136 193 243 159 190 127 335 232 300 325 321 301 253 229 240 245 240 244 240 239 247 245 251 240 247 247 253 248 245 243 241 240 240 241 245
31 30 25 33 32 33 32 34 31 30 23 18 29 44 50 47 68 58 72 87 63 73 68 45 35 38 34 28 23 23 24 28 24 28 41 37 44 46 36 46 67 70 36 17 31 12 54 176 188 219 218 35 246 202 188 193 220 131 130 7 306 349 333 330 270 262 251 238 228 236 238 242 246 240 236 243 247 244 246 246 245 240 241 237 238
33 31 27 30 33 32 31 33 33 32 28 21 25 19 47 64 64 73 63 73 75 48 56 42 32 33 29 25 28 21 27 33 28 32 34 32 30 35 31 37 45 60 73 40 24 7 31 17 1 331 2 275 251 260 203 208 149 134 303 219 240 48 317 298 319 288 234 226 218 234 230 237 246 258 248 245 247 251 251 246 245 241 241 240 237
33 31 27 29 34 33 32 36 36 34 31 25 25 27 39 41 44 58 54 48 34 33 34 27 27 29 31 25 17 23 27 33 29 30 33 33 33 32 34 27 37 32 50 54 49 27 9 159 156 326 302 294 297 319 347 229 235 239 164 308 317 321 231 264 340 286 353 304 255 247 254 252 267 267 259 259 264 253 251 252 250 254 249 244 242
32 23 27 34 36 36 35 37 39 35 30 27 24 39 46 50 46 45 44 46 44 30 29 16 14 23 14 1 26 24 25 31 29 28 29 27 30 25 31 36 32 19 28 38 27 14 9 1 34 195 254 236 251 329 302 259 240 272 280 241 178 252 304 276 351 292 329 224 284 315 258 256 257 261 257 262 257 255 245 250 244 247 242 242 241
22 15 31 36 39 41 40 41 42 39 31 32 32 41 50 51 57 61 60 59 64 39 27 27 33 21 31 32 19 21 21 24 22 26 23 24 26 24 24 32 38 32 19 28 20 23 3 12 25 5 258 289 269 277 277 280 91 242 241 253 266 216 123 345 269 339 299 319 334 277 276 251 236 235 246 247 248 246 245 236 244 241 241 240 242
14 25 36 38 41 40 43 44 44 42 36 35 42 40 54 50 55 55 54 52 52 45 29 31 36 34 41 31 27 22 18 21 21 21 22 22 20 21 19 24 29 22 26 33 20 358 1 7 33 22 351 330 274 240 281 296 269 291 214 248 257 250 219 241 220 240 277 299 291 299 255 270 256 243 241 250 247 240 247 238 241 242 240 238 235
28 36 38 40 45 48 51 51 48 44 36 40 47 45 54 57 61 59 60 47 50 46 44 42 41 34 45 31 32 23 20 20 23 22 22 22 23 20 18 22 22 14 15 26 26 30 25 7 1 5 6 335 228 241 276 278 280 268 300 291 261 262 258 232 218 177 247 275 282 286 287 317 258 255 256 244 251 245 239 243 235 237 238 240 229
33 39 46 48 50 55 56 56 49 45 41 46 50 51 52 57 60 57 62 52 43 43 48 45 41 38 47 38 31 29 19 19 17 20 19 17 20 21 24 23 17 13 19 16 18 23 18 18 8 350 348 334 320 291 239 270 269 276 241 279 298 314 312 305 228 240 255 220 262 281 291 295 291 265 224 250 248 243 242 239 239 237 238 238 232
35 45 47 48 51 56 60 61 51 50 46 48 51 52 51 52 59 58 59 56 47 48 47 40 34 37 38 33 31 24 24 24 17 20 22 13 13 18 21 19 21 19 18 17 14 11 7 5 359 10 9 346 322 329 311 278 278 283 278 247 252 242 255 268 276 256 244 276 287 278 281 257 250 286 251 247 248 250 239 228 233 238 238 238 237